Content
SEND FEEDBACK

Daily
Averages
Monthly
Summary
United States of America

PRUDHOE BAY, ALASKA


Home > North America > United States > Alaska
Elevation: 5 feet     Latitude: 70 15N     Longitude: 148 20W

WEATHER
 
SELECT A DAY
Number of Records: 235,578;   Date Range: 1/1/95 - 8/28/14
 
SHARE

PRINT THIS DATA

[ ← Previous Day ]
WEATHER ALMANAC - FEBRUARY 13, 2013
[ Next Day → ]
[ °C ]   °F
Weather ElementAverageHighLow
Temperature-21.2 °F-16.1 °F (1:53 am)-27 °F (10:53 am)
Dewpoint-27.5 °F-22 °F (1:53 am)-32.1 °F (8:53 am)
Humidity72.6 %77 % (7:53 am)66 % (12:53 pm)
Barometer30.02 in30.05 in (11:53 pm)29.97 in (1:53 am)
Wind Speed7.9 mph13.8 mph (5:53 pm)
Weather ElementAverage
Visibility9.6 mi
Wind DirectionENE (62.8 °)

Weather ElementTotal
Precipitation---
Heating Degree Days86.6 (Base 65)
Averaged from 25 records on February 13, 2013
WEATHER CONDITIONS BREAKOUT
WIND DIRECTION BREAKOUT
WEATHER BY HOUR - FEBRUARY 13, 2013
[ °C ]   °F
Local TimeTemperatureDewpointHumidityBarometerVisibilityWind DirectionWind SpeedGust SpeedPrecipitationEventsConditions
1:53 AM-16.1 °F-22.0 °F74 %29.97 in10.0 miCalmOvercast
2:53 AM-18.0 °F-24.0 °F74 %29.99 in10.0 miCalmOvercast
3:53 AM-16.1 °F-22.0 °F74 %29.99 in10.0 miCalmOvercast
4:53 AM-17.0 °F-23.1 °F74 %29.99 in10.0 miEast (90°)5.8 mphMostly Cloudy
5:53 AM-20.0 °F-26.0 °F74 %29.98 in10.0 miESE (110°)4.6 mphClear
6:53 AM-23.1 °F-29.0 °F74 %29.98 in10.0 miESE (120°)5.8 mphClear
7:53 AM-24.0 °F-29.0 °F77 %29.99 in10.0 miEast (100°)5.8 mphClear
8:53 AM-26.0 °F-32.1 °F73 %29.99 in10.0 miEast (80°)5.8 mphClear
9:53 AM-25.1 °F-31.0 °F74 %30.00 in10.0 miEast (80°)5.8 mphClear
10:53 AM-27.0 °F-32.1 °F77 %30.01 in10.0 miEast (90°)4.6 mphClear
11:53 AM-25.1 °F-32.1 °F70 %30.01 in10.0 miEast (80°)6.9 mphClear
12:53 PM-24.0 °F-32.1 °F66 %30.02 in10.0 miEast (80°)5.8 mphClear
1:53 PM-22.0 °F-29.0 °F70 %30.03 in10.0 miENE (70°)6.9 mphClear
2:53 PM-22.0 °F-29.0 °F70 %30.03 in10.0 miENE (70°)8.1 mphClear
3:53 PM-18.9 °F-26.0 °F70 %30.03 in10.0 miNE (50°)10.4 mphClear
4:53 PM-18.0 °F-24.0 °F74 %30.04 in8.0 miNE (50°)12.7 mphOvercast
5:53 PM-18.0 °F-24.0 °F74 %30.03 in10.0 miENE (60°)13.8 mphScattered Clouds
6:53 PM-20.9 °F-27.9 °F70 %30.03 in10.0 miENE (60°)11.5 mphClear
7:53 PM-18.9 °F-25.1 °F74 %30.04 in8.0 miNE (50°)13.8 mphClear
8:53 PM-20.9 °F-27.0 °F73 %30.04 in10.0 miENE (60°)11.5 mphClear
9:53 PM-22.0 °F-29.0 °F70 %30.04 in10.0 miNE (50°)12.7 mphClear
10:53 PM-22.0 °F-27.9 °F74 %30.04 in10.0 miENE (60°)10.4 mphClear
11:10 PM-23.8 °F-29.2 °F76 %30.04 in10.0 miENE (60°)10.4 mphScattered Clouds
11:19 PM-20.2 °F-27.4 °F69 %30.03 in7.0 miNE (50°)12.7 mphMostly Cloudy
11:53 PM-20.0 °F-27.0 °F70 %30.05 in7.0 miNE (50°)12.7 mphMostly Cloudy
Hourly data recorded from PASC, located miles away from Prudhoe Bay, Alaska







STORIES FROM OUR PARTNERS